Flag for Ukraine Weather past 2 weeks in Odesa, Ukraine

37 °F


Feels Like: 31 °F
Forecast: 35 / 48 °F
Wind: 8 mph from Southwest

Location: Odesa Airport

Current Time: Nov 30, 2015 at 10:23:33 AM

Latest Report: Nov 30, 2015 at 9:00 AM

Visibility: 10 mi

Pressure: 29.98 "Hg

Humidity: 93%

Dew point: 36 °F

Location of OdesaLocation

Historic Weather in Odesa — Graph


Odesa temperature yesterday

Maximum temperature yesterday: 50 °F (at 4:00 AM)
Minimum temperature yesterday: 37 °F (at 12:00 PM)
Average temperature yesterday: 41 °F

Past Weeks' High & Low Weather Summary

High63 °F (Nov 22, 10:30 AM)100% (Nov 17, 3:30 AM)30.30 "Hg (Nov 17, 3:30 AM)
Low27 °F (Nov 17, 5:00 AM)47% (Nov 15, 1:00 PM)29.33 "Hg (Nov 21, 1:00 PM)
Average46 °F86%29.87 "Hg
* Reported Nov 15 9:00 AM — Nov 30 9:00 AM, Odesa, Weather by CustomWeather, © 2015

Note: Actual official high and low records may vary slightly from our data, if they occured in-between our weather recording intervals... More about our weather records


Odesa weather history for previous 24 hours

Time TempWeatherWind HumidityBarometerVisibility
9:00 AM
Mon, Nov 30
37 °FSunny.8 mph93%29.98 "Hg10 mi
8:30 AM36 °FBroken clouds.6 mph100%29.98 "Hg4 mi
7:30 AM34 °FFog.3 mph100%29.98 "Hg3 mi
7:00 AM34 °FClear.3 mph100%29.98 "Hg4 mi
6:30 AM34 °FClear.8 mph93%29.98 "Hg10 mi
5:30 AM34 °FClear.6 mph100%29.98 "Hg10 mi
5:00 AM36 °FClear.8 mph93%29.98 "Hg10 mi
4:30 AM36 °FClear.8 mph93%29.98 "Hg10 mi
4:00 AM36 °FMostly cloudy.8 mph93%29.98 "HgN/A
3:30 AM37 °FMostly cloudy.8 mph87%29.98 "HgN/A
2:30 AM37 °FMostly cloudy.10 mph87%29.98 "HgN/A
2:00 AM37 °FMostly cloudy.10 mph87%29.98 "HgN/A
1:00 AM37 °FMostly cloudy.10 mph93%29.95 "HgN/A
12:30 AM37 °FOvercast.10 mph93%29.95 "HgN/A
12:00 AM37 °FSprinkles. Mostly cloudy.10 mph93%29.95 "HgN/A
11:30 PM
Sun, Nov 29
37 °FSprinkles. Partly cloudy.10 mph93%29.95 "Hg6 mi
11:00 PM37 °FPassing clouds.13 mph93%29.95 "HgN/A
10:30 PM37 °FSprinkles. Mostly cloudy.13 mph93%29.95 "HgN/A
10:00 PM37 °FSprinkles. Mostly cloudy.13 mph93%29.95 "HgN/A
9:30 PM37 °FSprinkles. Mostly cloudy.10 mph93%29.95 "Hg5 mi
9:00 PM37 °FSprinkles. Mostly cloudy.15 mph93%29.92 "Hg5 mi
8:30 PM37 °FLight rain. Mostly cloudy.15 mph93%29.92 "Hg6 mi
8:00 PM37 °FMostly cloudy.17 mph93%29.92 "HgN/A
7:30 PM37 °FMostly cloudy.15 mph93%29.92 "Hg6 mi
7:00 PM37 °FMostly cloudy.15 mph93%29.92 "HgN/A
6:30 PM37 °FMostly cloudy.15 mph93%29.89 "HgN/A
6:00 PM37 °FSprinkles. Partly cloudy.17 mph93%29.89 "HgN/A
5:30 PM37 °FSprinkles. Partly cloudy.17 mph93%29.89 "HgN/A
5:00 PM37 °FOvercast.17 mph87%29.89 "HgN/A
4:30 PM37 °FOvercast.17 mph93%29.86 "HgN/A
4:00 PM37 °FMore clouds than sun.17 mph93%29.86 "HgN/A
3:30 PM37 °FSprinkles. More clouds than sun.17 mph93%29.86 "HgN/A
3:00 PM37 °FMore clouds than sun.20 mph93%29.83 "HgN/A
2:30 PM37 °FMore clouds than sun.22 mph93%29.83 "HgN/A
2:00 PM37 °FLight rain. More clouds than sun.20 mph93%29.80 "HgN/A
1:30 PM37 °FLight rain. Cloudy.22 mph93%29.80 "HgN/A
1:00 PM37 °FMostly cloudy.22 mph93%29.80 "HgN/A
12:30 PM37 °FLow clouds.20 mph93%29.77 "HgN/A
12:00 PM37 °FMostly cloudy.22 mph93%29.77 "HgN/A
11:30 AM39 °FMostly cloudy.22 mph93%29.77 "HgN/A
11:00 AM39 °FLight rain. Overcast.20 mph93%29.77 "HgN/A
10:30 AM39 °FLight rain. Low clouds.20 mph100%29.74 "HgN/A
10:00 AM39 °FLow clouds.20 mph100%29.74 "HgN/A
Weather by CustomWeather, © 2015

See weather overviewHow to use our weather pages